Wind_Speed
11 11 10 11 11 10 9 8 7 8 12 15 19 22 25 28 31 33 35 35 33 29 24 22 23 25 26 27 29 32 35 38 41 43 44 44 43 42 40 39 37 37 37 37
11 10 10 10 9 7 5 4 6 9 12 16 19 21 23 26 28 30 30 29 26 21 16 13 13 15 18 20 22 25 28 31 34 36 38 39 38 37 35 35 34 34 34 36
11 10 9 7 6 4 3 4 7 10 13 16 18 20 22 24 25 26 27 26 23 17 11 6 4 8 12 15 18 21 23 25 27 30 32 33 32 31 31 32 32 32 34 38
11 10 7 6 5 4 3 4 7 10 13 15 17 19 21 22 23 23 23 22 20 17 12 7 4 7 11 13 16 18 21 23 25 27 28 28 28 29 29 30 31 33 36 37
10 9 7 7 6 5 4 4 6 9 12 15 17 19 19 20 21 21 20 19 18 16 14 12 11 10 12 15 17 19 20 22 23 24 24 25 26 26 28 30 32 34 34 36
10 9 9 8 8 6 5 4 5 8 11 13 16 17 17 18 18 19 18 17 16 15 15 14 13 14 15 16 16 18 19 20 21 21 21 22 23 25 27 30 31 32 33 35
12 11 11 9 9 7 6 5 5 7 9 12 14 16 16 16 16 16 15 14 13 13 14 14 14 14 14 14 15 15 15 15 16 16 18 20 21 23 24 25 25 28 31 33
13 13 13 11 10 9 7 6 6 7 9 11 13 14 15 14 14 13 13 12 11 11 10 11 11 11 10 8 7 7 7 9 11 13 14 16 16 17 18 21 24 28 31 34
15 14 14 13 12 10 9 8 7 8 9 10 12 13 13 13 12 11 11 10 9 9 9 8 8 8 7 6 5 4 4 4 4 5 7 10 12 14 18 22 26 29 33 36
17 16 15 14 13 12 11 10 9 9 10 10 11 11 12 12 11 10 9 8 7 6 7 7 6 6 6 5 4 3 3 3 4 6 9 12 15 18 22 25 28 32 34 37
19 19 17 15 14 13 13 12 11 11 11 10 11 10 11 11 10 9 8 6 5 4 4 5 5 5 5 5 5 5 6 7 9 11 14 17 20 22 25 28 30 33 35 39
20 21 20 18 16 15 14 13 12 12 12 11 11 10 11 10 10 8 7 5 4 4 4 4 5 6 6 7 8 9 11 12 14 16 19 21 23 25 27 29 31 34 37 41
20 21 21 20 19 17 16 15 14 14 13 12 12 11 11 11 10 9 7 6 5 5 5 5 6 8 9 11 12 13 15 16 18 20 21 23 24 26 28 30 33 36 40 44
20 21 21 22 21 19 18 17 16 15 14 13 12 12 11 11 10 9 8 7 7 7 6 7 9 10 12 14 15 16 18 19 20 21 22 24 26 27 30 32 36 39 44 48
21 21 22 22 22 20 19 18 17 16 15 14 13 13 12 11 10 9 9 8 8 9 10 11 12 13 15 17 18 19 20 20 21 22 23 25 27 29 32 35 38 42 47 52
22 22 23 23 22 22 20 19 18 17 16 15 14 13 13 13 12 11 10 10 10 11 12 14 15 16 18 19 20 20 21 22 22 24 25 27 29 31 34 37 41 45 50 54
22 22 23 23 23 22 21 20 19 18 17 17 15 14 14 14 14 13 13 13 13 14 14 15 17 18 19 20 21 21 22 23 24 25 27 29 30 33 36 40 43 48 52 54
21 22 23 23 23 22 22 21 21 19 18 17 17 16 16 16 15 15 14 15 15 16 16 17 18 19 20 21 22 22 23 24 25 27 28 30 33 36 39 42 45 50 53 54
20 21 22 22 22 22 22 21 21 20 19 19 18 18 17 17 16 16 16 16 17 17 18 19 20 20 21 22 23 23 24 26 27 28 30 32 35 38 41 44 47 51 52 53
18 19 20 21 22 22 22 22 21 21 21 21 20 19 19 18 18 18 18 18 18 19 19 20 21 21 22 23 24 25 26 27 29 30 32 34 37 39 42 45 49 51 52 51
16 17 18 19 20 20 21 21 21 21 21 22 21 21 21 20 20 20 19 20 20 20 21 21 22 22 23 24 25 26 27 29 30 32 34 36 38 41 43 47 49 51 51 49
14 16 17 17 18 19 20 20 21 21 21 22 22 23 22 22 22 21 21 21 21 21 21 22 22 23 24 25 26 27 29 30 32 33 35 37 39 42 44 48 50 51 50 47
14 15 16 17 18 18 20 20 21 21 21 22 22 22 23 23 22 21 21 22 22 22 22 23 23 24 25 26 27 29 30 32 33 34 36 38 40 43 45 49 51 51 48 43
17 17 17 18 18 19 20 21 22 23 22 22 23 23 23 22 22 22 23 23 23 23 23 24 25 26 26 27 29 30 31 32 33 35 36 39 41 44 47 50 51 49 45 39
20 20 20 19 19 20 20 21 22 22 23 23 23 23 23 23 24 24 24 24 24 24 25 26 27 27 28 29 30 31 32 32 34 35 37 40 42 45 49 51 50 46 41 34
23 23 23 23 23 23 23 22 22 23 23 23 24 24 24 24 25 25 25 25 26 26 27 28 28 29 29 30 30 31 32 33 34 36 38 40 43 47 49 50 47 43 36 30
28 28 27 27 26 26 25 25 25 25 25 25 25 25 25 25 26 27 27 27 28 28 28 29 30 30 30 30 30 31 32 33 34 37 39 41 45 48 49 48 44 38 32 28
Wind_Direction
232 238 248 255 261 267 276 281 295 314 322 323 324 323 323 323 324 324 322 319 315 309 295 278 263 252 242 237 233 231 228 226 225 224 224 223 225 229 234 239 244 249 253 256
241 245 246 247 252 259 260 284 323 331 332 331 332 331 331 331 332 335 336 334 331 326 315 289 262 241 229 223 221 221 219 218 218 218 218 218 221 226 232 238 243 247 252 257
245 247 245 241 238 237 251 309 333 337 339 339 337 335 337 341 343 347 349 351 351 348 339 327 252 211 203 202 201 200 201 204 207 208 210 213 217 223 230 236 240 247 253 258
243 242 241 231 221 227 257 306 331 338 341 344 343 342 344 349 352 356 360 4 8 14 25 42 97 147 164 173 176 179 182 188 194 198 202 207 214 222 229 236 242 248 256 261
235 232 226 213 211 228 259 302 333 342 345 346 346 347 350 355 360 3 9 15 23 34 46 62 88 116 135 147 159 166 172 177 184 191 198 206 214 222 233 240 248 251 257 265
224 223 219 212 216 229 252 285 321 341 347 347 348 350 353 358 2 7 14 24 34 46 58 71 89 109 124 134 143 151 160 172 181 191 201 211 222 231 238 245 251 257 263 272
219 218 218 217 219 232 251 278 306 330 344 347 349 351 354 359 2 6 14 26 36 48 61 71 82 99 113 124 133 144 157 171 184 196 211 224 235 242 248 256 264 272 280 285
219 219 219 221 225 236 254 275 299 318 333 342 346 348 351 355 1 7 14 26 34 44 57 66 75 89 104 120 137 153 171 192 204 211 225 236 244 255 267 277 283 286 289 292
221 223 223 226 231 240 254 271 288 305 318 329 336 341 343 348 354 0 7 17 28 40 52 61 68 74 83 95 107 133 167 196 219 242 261 272 281 285 287 289 291 294 297 299
223 226 226 230 236 243 253 266 281 294 304 314 322 328 335 338 343 350 357 7 20 36 49 54 56 55 54 58 55 43 18 338 311 300 296 295 295 296 298 299 301 303 304 306
225 228 229 233 239 245 254 265 276 283 291 301 306 312 321 327 331 336 341 349 6 21 29 31 33 33 31 26 15 358 341 327 317 310 306 305 305 306 306 307 308 309 309 310
227 230 232 236 243 250 257 264 271 276 281 289 293 297 306 312 315 318 321 321 324 335 345 351 353 353 350 346 340 332 324 318 314 311 310 310 310 310 310 310 311 312 313 313
232 234 235 238 244 250 256 262 267 271 274 277 281 286 295 301 301 300 297 294 297 304 311 318 324 326 327 325 322 319 316 314 312 311 311 312 312 312 313 313 313 314 314 314
235 236 237 239 243 248 254 259 263 266 267 268 272 278 286 291 292 287 283 278 280 286 295 306 312 314 316 316 315 314 314 314 314 314 314 314 314 314 315 315 315 316 316 317
238 237 237 239 242 246 251 256 258 259 260 263 267 272 277 282 285 280 274 271 272 279 288 297 304 307 310 311 312 314 314 315 315 315 315 315 315 315 315 316 316 318 318 319
241 239 238 240 243 246 249 252 254 255 256 258 263 266 270 274 276 273 268 268 272 279 287 294 300 306 309 310 312 313 314 314 314 314 314 314 314 315 316 317 318 319 320 321
242 240 238 240 242 245 246 248 249 250 253 255 258 261 266 269 268 265 265 267 273 280 288 294 300 305 308 310 311 312 312 312 313 313 313 314 314 315 317 318 319 321 322 323
243 241 240 240 241 243 244 246 248 248 250 251 252 257 262 264 263 262 264 268 274 281 287 293 300 304 306 308 310 310 311 311 311 312 313 314 315 316 318 319 321 323 324 325
245 242 241 241 241 243 244 245 246 246 247 247 250 254 256 259 260 261 265 270 275 281 287 293 298 301 304 307 309 310 310 310 311 312 313 314 315 317 319 321 323 324 325 326
246 243 241 242 242 242 243 244 244 244 244 244 247 250 252 255 259 262 266 272 277 282 286 291 296 299 303 306 307 308 309 310 311 312 313 314 316 318 320 322 324 325 326 326
248 245 243 243 243 242 242 242 242 241 241 241 243 246 251 255 259 262 266 272 278 282 287 291 294 298 302 304 306 307 309 310 311 312 313 314 316 319 321 324 325 326 326 326
253 248 245 243 242 241 241 241 239 238 238 240 243 247 251 256 260 262 267 272 278 282 286 290 293 297 301 303 305 307 308 310 311 311 313 315 318 320 322 325 326 327 326 326
257 253 250 247 244 242 240 238 238 238 241 243 245 249 253 256 259 263 269 274 278 282 285 289 293 296 299 302 304 306 308 309 310 311 314 316 319 322 324 326 327 327 326 325
257 254 253 249 246 244 240 238 240 242 244 246 248 250 252 255 260 265 270 273 277 281 285 288 292 295 298 301 303 305 307 309 310 312 315 318 320 323 325 327 327 327 326 324
261 259 256 254 250 247 247 247 246 247 248 249 250 251 254 258 261 264 268 271 275 279 283 288 292 295 298 300 302 305 307 308 311 313 316 319 321 324 326 327 328 327 325 322
264 262 260 258 256 254 253 251 250 250 249 250 252 253 255 257 259 262 265 269 273 278 283 287 291 295 298 300 302 305 307 309 312 315 317 320 322 325 327 328 329 327 324 320
264 263 263 262 260 259 258 257 257 256 256 256 256 256 255 255 257 261 264 268 272 276 281 286 290 294 297 300 302 304 307 310 313 315 318 321 324 326 328 329 329 326 323 318
Height
5646 5647 5648 5649 5649 5649 5649 5648 5648 5647 5644 5640 5636 5631 5625 5618 5610 5601 5590 5578 5567 5557 5550 5546 5545 5546 5549 5554 5559 5566 5573 5581 5589 5598 5607 5616 5624 5631 5637 5642 5646 5649 5650 5651
5642 5643 5644 5645 5645 5645 5645 5645 5644 5642 5640 5636 5631 5626 5620 5613 5605 5595 5585 5574 5563 5553 5546 5542 5540 5541 5544 5549 5555 5561 5568 5576 5584 5593 5602 5610 5618 5625 5631 5635 5638 5640 5642 5642
5639 5640 5641 5642 5642 5642 5642 5642 5641 5639 5637 5633 5628 5623 5617 5610 5602 5593 5583 5573 5563 5554 5547 5542 5540 5541 5543 5548 5553 5560 5567 5575 5583 5591 5599 5607 5614 5620 5625 5628 5631 5633 5634 5634
5636 5638 5638 5641 5639 5640 5640 5640 5638 5636 5633 5630 5625 5620 5614 5608 5600 5592 5584 5575 5566 5559 5552 5547 5545 5544 5546 5550 5555 5561 5567 5575 5583 5590 5597 5604 5610 5615 5619 5621 5623 5624 5625 5625
5633 5634 5635 5637 5637 5637 5638 5637 5636 5634 5631 5627 5623 5618 5612 5606 5600 5593 5586 5579 5572 5565 5560 5556 5553 5552 5553 5556 5560 5565 5570 5577 5584 5590 5596 5602 5606 5610 5613 5615 5616 5617 5617 5617
5630 5631 5633 5635 5635 5635 5637 5635 5634 5632 5629 5625 5621 5617 5612 5607 5601 5595 5590 5584 5578 5573 5568 5564 5562 5561 5562 5563 5566 5570 5575 5580 5585 5590 5595 5599 5603 5606 5608 5609 5610 5610 5610 5608
5627 5628 5630 5632 5632 5633 5635 5634 5631 5629 5627 5623 5620 5616 5612 5607 5602 5597 5593 5588 5583 5579 5575 5573 5571 5570 5570 5571 5573 5576 5580 5583 5587 5590 5594 5598 5600 5602 5603 5604 5604 5604 5602 5599
5624 5625 5629 5629 5629 5631 5631 5629 5628 5626 5624 5622 5618 5615 5611 5607 5603 5599 5595 5591 5587 5584 5582 5579 5578 5577 5577 5577 5579 5581 5583 5585 5588 5591 5594 5596 5597 5598 5598 5598 5598 5597 5594 5590
5621 5624 5624 5625 5626 5626 5626 5626 5625 5623 5622 5619 5617 5614 5611 5607 5604 5600 5597 5594 5591 5588 5586 5585 5583 5583 5582 5583 5583 5585 5586 5588 5590 5591 5592 5593 5594 5594 5594 5593 5591 5588 5584 5580
5616 5618 5619 5621 5621 5622 5622 5622 5621 5620 5619 5617 5615 5612 5610 5607 5604 5601 5598 5596 5593 5591 5590 5588 5587 5587 5586 5587 5587 5587 5588 5589 5589 5590 5590 5590 5590 5589 5587 5585 5582 5579 5575 5570
5611 5613 5614 5616 5617 5617 5617 5617 5617 5616 5615 5614 5612 5610 5608 5606 5603 5601 5599 5597 5595 5593 5592 5591 5590 5589 5589 5589 5589 5588 5588 5588 5588 5588 5587 5586 5584 5582 5580 5577 5574 5570 5566 5561
5606 5608 5609 5611 5612 5612 5613 5613 5612 5612 5611 5610 5609 5608 5606 5604 5602 5600 5598 5597 5595 5594 5593 5592 5591 5590 5590 5589 5588 5588 5587 5586 5585 5584 5582 5580 5578 5576 5573 5570 5566 5562 5558 5552
5600 5602 5604 5605 5606 5607 5607 5608 5608 5607 5607 5607 5606 5605 5604 5602 5601 5599 5597 5596 5595 5594 5593 5592 5591 5591 5590 5588 5587 5586 5584 5583 5581 5579 5577 5575 5572 5570 5567 5564 5559 5555 5549 5543
5594 5596 5598 5599 5600 5601 5602 5602 5603 5603 5603 5603 5602 5601 5600 5599 5598 5597 5596 5595 5594 5593 5592 5591 5590 5589 5588 5587 5585 5583 5581 5579 5577 5575 5572 5570 5567 5564 5560 5556 5552 5546 5540 5532
5587 5589 5591 5592 5594 5595 5596 5597 5597 5598 5598 5598 5598 5598 5597 5596 5595 5594 5593 5593 5592 5592 5591 5590 5589 5587 5586 5584 5582 5579 5577 5575 5572 5570 5567 5564 5561 5558 5554 5549 5544 5537 5530 5521
5581 5582 5584 5586 5587 5589 5590 5591 5592 5592 5593 5593 5593 5593 5593 5593 5592 5591 5591 5590 5590 5589 5588 5587 5586 5584 5582 5580 5578 5575 5573 5570 5568 5565 5562 5559 5555 5551 5547 5541 5535 5528 5520 5510
5574 5576 5577 5579 5581 5582 5584 5585 5586 5587 5588 5588 5588 5589 5589 5589 5588 5588 5588 5587 5587 5586 5585 5584 5582 5580 5578 5576 5573 5571 5568 5566 5563 5560 5557 5553 5549 5544 5539 5533 5526 5519 5510 5500
5568 5569 5571 5572 5574 5576 5577 5579 5580 5581 5582 5583 5583 5584 5584 5584 5584 5584 5584 5583 5583 5582 5581 5579 5578 5576 5573 5571 5569 5566 5564 5561 5558 5554 5551 5547 5542 5537 5531 5525 5518 5509 5500 5490
5562 5563 5565 5566 5568 5569 5571 5573 5574 5575 5576 5577 5578 5578 5579 5579 5579 5579 5579 5579 5578 5577 5576 5574 5573 5571 5569 5566 5564 5561 5558 5555 5552 5548 5544 5540 5535 5530 5523 5516 5509 5500 5490 5480
5556 5557 5559 5560 5562 5563 5565 5566 5568 5569 5570 5571 5572 5573 5573 5574 5574 5574 5574 5574 5573 5572 5571 5569 5568 5566 5564 5561 5558 5556 5552 5549 5546 5542 5537 5533 5527 5522 5515 5508 5500 5491 5481 5471
5551 5552 5553 5555 5556 5557 5559 5560 5562 5563 5564 5565 5566 5567 5568 5568 5568 5568 5568 5568 5567 5566 5565 5564 5562 5560 5558 5555 5553 5550 5546 5543 5539 5535 5530 5525 5520 5514 5507 5499 5491 5481 5472 5462
5546 5547 5548 5549 5550 5551 5553 5554 5555 5556 5558 5559 5560 5561 5562 5562 5563 5563 5562 5562 5561 5560 5559 5558 5556 5554 5552 5549 5546 5543 5540 5536 5532 5528 5523 5518 5512 5506 5498 5490 5482 5472 5462 5453
5542 5542 5543 5544 5545 5546 5547 5548 5549 5550 5552 5553 5554 5555 5556 5556 5556 5557 5556 5556 5555 5554 5553 5551 5549 5548 5545 5543 5540 5537 5533 5529 5525 5520 5515 5510 5504 5497 5490 5481 5472 5463 5453 5445
5537 5537 5538 5539 5540 5541 5542 5543 5544 5545 5546 5547 5548 5548 5549 5550 5550 5550 5550 5549 5548 5547 5546 5545 5543 5541 5538 5536 5533 5530 5526 5522 5517 5513 5508 5502 5496 5489 5481 5472 5463 5454 5445 5437
5531 5532 5532 5533 5534 5535 5536 5537 5537 5538 5539 5540 5541 5542 5543 5543 5543 5543 5543 5542 5542 5541 5539 5538 5536 5534 5531 5529 5526 5522 5518 5514 5510 5505 5500 5494 5487 5480 5472 5463 5454 5445 5437 5430
5524 5525 5525 5526 5527 5528 5529 5530 5530 5531 5532 5533 5534 5535 5535 5536 5536 5536 5535 5535 5535 5534 5532 5531 5529 5527 5524 5521 5518 5515 5511 5507 5502 5497 5492 5486 5479 5471 5463 5454 5446 5438 5430 5424
5516 5517 5517 5518 5519 5520 5521 5522 5522 5523 5524 5525 5526 5527 5527 5528 5528 5528 5528 5528 5527 5526 5525 5523 5522 5519 5517 5514 5511 5507 5503 5499 5495 5490 5484 5478 5471 5463 5455 5446 5438 5430 5424 5418